Location: Long Island Community Building
(39.9491°N, 99.5338°W)
Time: 00:26:17
(UTC+00:00)

NOAA 6 - Pass Details

Date: 06 December 2019
Orbit: 773 x 787 km, 98.7° (Epoch: 26 January)

Event Time Altitude Azimuth Distance (km) Brightness Sun altitude
Rises 12:09:15 0° 15° (NNE) 3,257 7.3 -17.9°
Reaches altitude 10° 12:11:35 10° 17° (NNE) 2,326 6.5 -17.4°
Maximum altitude 12:16:42 76° 102° (ESE) 800 4.2 -16.5°
Drops below altitude 10° 12:21:49 10° 189° (S) 2,315 6.6 -15.5°
Sets 12:24:07 0° 191° (S) 3,240 7.3 -15.1°
